Date String (YYYY-MM-DD hh:mm:ss) UTC,Instrument flags,Ambient pressure (hPa),Sample flow (lpm),Bypass flow (lpm),Sample temperature (°C),Ambient temperature (°C),ASC tube jacket temperature (°C),LED temperature (°C),Box temperature (°C),Sample RH (%),Span deviation,Mass concentration (μg/m³),Mass concentration (μg/m³),Mass concentration (μg/m³)
DateTimeUTC,F1_M11,P_M11,Q1_M11,Q2_M11,T1_M11,T2_M11,T3_M11,T4_M11,T5_M11,U1_M11,ZSPAN_M11,X2_M11,X0_M11,X1_M11
2023-02-16 08:00:00,,0825.6,5.01,0.00,22.3,22.2,00.0,31.2,24.2,07.4,0000.0,0002.80,0004.26,0002.38
2023-02-16 08:01:00,,0825.6,4.98,0.00,22.5,23.0,00.0,31.2,24.4,07.3,0000.0,0002.81,0004.28,0002.40
2023-02-16 08:02:00,,0825.6,5.03,0.00,22.5,22.5,00.0,31.3,24.3,07.3,0000.0,0002.86,0004.33,0002.44
2023-02-16 08:03:00,,0825.6,5.02,0.00,22.5,21.7,00.0,31.3,24.2,07.3,0000.0,0002.89,0004.32,0002.51
2023-02-16 08:04:00,,0825.6,4.98,0.00,22.4,21.1,00.0,31.3,24.0,07.3,0000.0,0002.98,0004.43,0002.58
2023-02-16 08:05:00,,0825.6,5.00,0.00,22.3,20.7,00.0,31.3,23.9,07.3,0000.0,0003.00,0004.37,0002.63
2023-02-16 08:06:00,,0825.6,4.99,0.00,22.2,20.4,00.0,31.3,23.7,07.4,0000.0,0003.00,0004.27,0002.66
2023-02-16 08:07:00,,0825.5,4.97,0.00,22.2,20.1,00.0,31.3,23.6,07.4,0000.0,0002.94,0004.11,0002.65
2023-02-16 08:08:00,,0825.6,5.03,0.00,22.1,20.5,00.0,31.2,23.7,07.4,0000.0,0002.95,0003.55,0002.65
2023-02-16 08:09:00,,0825.5,4.94,0.00,22.2,21.7,00.0,31.2,24.0,07.4,0000.0,0002.93,0003.54,0002.64
2023-02-16 08:10:00,,0825.5,4.94,0.00,22.4,22.6,00.0,31.2,24.3,07.3,0000.0,0002.89,0003.48,0002.61
2023-02-16 08:11:00,,0825.5,4.95,0.00,22.4,22.4,00.0,31.2,24.3,07.3,0000.0,0002.83,0003.41,0002.56
2023-02-16 08:12:00,,0825.4,4.99,0.00,22.4,21.9,00.0,31.2,24.2,07.3,0000.0,0002.80,0003.45,0002.51
2023-02-16 08:13:00,,0825.5,4.98,0.00,22.4,21.4,00.0,31.3,24.1,07.2,0000.0,0002.74,0003.38,0002.45
2023-02-16 08:14:00,,0825.5,4.97,0.00,22.4,21.1,00.0,31.3,24.1,07.2,0000.0,0002.72,0003.39,0002.41
2023-02-16 08:15:00,,0825.5,4.98,0.00,22.3,20.8,00.0,31.3,24.0,07.2,0000.0,0002.64,0003.34,0002.33
2023-02-16 08:16:00,,0825.5,5.00,0.00,22.3,20.6,00.0,31.2,24.0,07.2,0000.0,0002.58,0003.35,0002.26
2023-02-16 08:17:00,,0825.5,5.01,0.00,22.3,20.5,00.0,31.2,23.9,07.2,0000.0,0002.50,0003.26,0002.20
2023-02-16 08:18:00,,0825.5,4.96,0.00,22.3,21.3,00.0,31.2,24.1,07.2,0000.0,0002.53,0003.44,0002.17
2023-02-16 08:19:00,,0825.5,4.89,0.00,22.4,22.3,00.0,31.2,24.3,07.2,0000.0,0002.54,0003.54,0002.16
2023-02-16 08:20:00,,0825.5,5.01,0.00,22.5,23.1,00.0,31.2,24.6,07.1,0000.0,0002.53,0003.67,0002.12
2023-02-16 08:21:00,,0825.5,4.95,0.00,22.6,22.8,00.0,31.2,24.5,07.1,0000.0,0002.51,0003.65,0002.11
2023-02-16 08:22:00,,0825.4,4.95,0.00,22.5,21.9,00.0,31.3,24.2,07.1,0000.0,0002.47,0003.59,0002.09
2023-02-16 08:23:00,,0825.5,4.99,0.00,22.4,21.2,00.0,31.3,23.9,07.2,0000.0,0002.46,0003.59,0002.07
2023-02-16 08:24:00,,0825.5,4.97,0.00,22.2,20.6,00.0,31.3,23.6,07.2,0000.0,0002.45,0004.14,0002.05
2023-02-16 08:25:00,,0825.5,5.00,0.00,22.1,20.1,00.0,31.2,23.4,07.3,0000.0,0002.40,0004.11,0002.02
2023-02-16 08:26:00,,0825.4,5.00,0.00,22.0,19.7,00.0,31.2,23.2,07.3,0000.0,0002.38,0004.06,0002.00
2023-02-16 08:27:00,,0825.4,5.01,0.00,22.0,20.5,00.0,31.1,23.5,07.3,0000.0,0002.36,0004.00,0001.99
2023-02-16 08:28:00,,0825.5,4.97,0.00,22.1,21.7,00.0,31.1,23.9,07.3,0000.0,0002.37,0004.05,0001.95
2023-02-16 08:29:00,,0825.5,4.97,0.00,22.2,22.5,00.0,31.1,24.1,07.3,0000.0,0002.29,0003.88,0001.91
2023-02-16 08:30:00,,0825.5,4.99,0.00,22.3,22.4,00.0,31.1,24.1,07.2,0000.0,0002.23,0003.79,0001.87
2023-02-16 08:31:00,,0825.5,4.97,0.00,22.2,21.5,00.0,31.2,23.8,07.2,0000.0,0002.18,0003.61,0001.84
2023-02-16 08:32:00,,0825.5,4.99,0.00,22.1,20.7,00.0,31.1,23.5,07.3,0000.0,0002.13,0003.54,0001.80
2023-02-16 08:33:00,,0825.5,5.01,0.00,22.0,20.1,00.0,31.1,23.3,07.3,0000.0,0002.12,0003.51,0001.78
2023-02-16 08:34:00,,0825.5,5.00,0.00,21.8,19.7,00.0,31.1,23.1,07.4,0000.0,0002.07,0003.42,0001.76
2023-02-16 08:35:00,,0825.5,5.01,0.00,21.8,20.4,00.0,31.0,23.3,07.4,0000.0,0002.08,0002.89,0001.75
2023-02-16 08:36:00,,0825.5,4.93,0.00,22.0,21.5,00.0,31.0,23.7,07.4,0000.0,0002.07,0002.92,0001.74
2023-02-16 08:37:00,,0825.5,4.94,0.00,22.1,22.3,00.0,31.0,24.0,07.3,0000.0,0002.09,0002.94,0001.75
2023-02-16 08:38:00,,0825.5,5.03,0.00,22.2,22.7,00.0,31.0,24.1,07.3,0000.0,0002.11,0002.96,0001.77
2023-02-16 08:39:00,,0825.4,5.03,0.00,22.2,22.0,00.0,31.0,23.9,07.3,0000.0,0002.13,0002.97,0001.81
2023-02-16 08:40:00,,0825.4,5.01,0.00,22.1,21.2,00.0,31.0,23.6,07.3,0000.0,0002.23,0003.15,0001.89
2023-02-16 08:41:00,,0825.5,5.00,0.00,22.0,20.6,00.0,31.0,23.3,07.4,0000.0,0002.29,0003.18,0001.97
2023-02-16 08:42:00,,0825.5,5.03,0.00,21.8,20.0,00.0,31.0,23.1,07.4,0000.0,0002.38,0003.25,0002.05
2023-02-16 08:43:00,,0825.5,5.01,0.00,21.7,20.0,00.0,30.9,23.1,07.5,0000.0,0002.49,0003.41,0002.15
2023-02-16 08:44:00,,0825.5,4.99,0.00,21.8,21.1,00.0,30.9,23.4,07.4,0000.0,0002.57,0003.48,0002.23
2023-02-16 08:45:00,,0825.5,4.97,0.00,21.9,22.0,00.0,30.9,23.7,07.4,0000.0,0002.63,0003.55,0002.30
2023-02-16 08:46:00,,0825.5,4.98,0.00,22.1,22.6,00.0,30.9,24.0,07.3,0000.0,0002.70,0003.62,0002.37
2023-02-16 08:47:00,,0825.4,5.03,0.00,22.2,22.5,00.0,30.9,24.0,07.3,0000.0,0002.80,0003.79,0002.44
2023-02-16 08:48:00,,0825.5,5.01,0.00,22.1,21.6,00.0,31.0,23.7,07.3,0000.0,0002.90,0003.95,0002.50
2023-02-16 08:49:00,,0825.4,5.02,0.00,22.0,20.9,00.0,31.0,23.4,07.4,0000.0,0002.97,0004.05,0002.55
2023-02-16 08:50:00,,0825.5,4.97,0.00,21.8,20.3,00.0,30.9,23.2,07.4,0000.0,0003.06,0004.19,0002.61
2023-02-16 08:51:00,,0825.5,4.98,0.00,21.7,19.9,00.0,30.9,23.0,07.4,0000.0,0003.06,0004.14,0002.62
2023-02-16 08:52:00,,0825.4,4.99,0.00,21.7,20.5,00.0,30.8,23.2,07.4,0000.0,0003.08,0004.13,0002.63
2023-02-16 08:53:00,,0825.5,4.97,0.00,21.9,21.7,00.0,30.8,23.6,07.3,0000.0,0003.11,0004.21,0002.65
2023-02-16 08:54:00,,0825.5,5.00,0.00,22.0,22.5,00.0,30.8,23.9,07.3,0000.0,0003.13,0004.30,0002.66
2023-02-16 08:55:00,,0825.5,4.98,0.00,22.1,22.4,00.0,30.9,23.9,07.2,0000.0,0003.14,0004.37,0002.68
2023-02-16 08:56:00,,0825.4,4.96,0.00,22.0,21.6,00.0,30.9,23.7,07.2,0000.0,0003.14,0004.33,0002.68
2023-02-16 08:57:00,,0825.5,4.99,0.00,21.9,20.9,00.0,30.9,23.4,07.2,0000.0,0003.13,0004.32,0002.67
2023-02-16 08:58:00,,0825.4,5.00,0.00,21.8,20.3,00.0,30.9,23.1,07.2,0000.0,0003.10,0004.25,0002.67
2023-02-16 08:59:00,,0825.5,5.00,0.00,21.7,19.8,00.0,30.8,22.9,07.2,0000.0,0003.05,0004.29,0002.65
